FW3135 Weather Reports


time (UTC)temp
C
wind
direction
speed
KPH
gust
KPH
rain 1hr
cm
rain 24hr
cm
rain mn
cm
humidity
%
barometer
mb
20260901141320 24 346 14.5 29.0 0.00 0.00 0.00 66 1021.1
20260901140831 24 338 11.3 25.7 0.00 0.00 0.00 66 1021.1
20260901140334 24 40 16.1 27.4 0.00 0.00 0.00 66 1021.2
20260901135828 24 328 11.3 29.0 0.00 0.00 0.00 66 1021.2
20260901135331 24 91 14.5 30.6 0.00 0.00 0.00 66 1021.3
20260901134826 24 360 14.5 33.8 0.00 0.00 0.00 66 1021.2
20260901134329 24 51 17.7 32.2 0.00 0.00 0.00 65 1021.2
20260901133824 24 360 14.5 35.4 0.00 0.00 0.00 67 1021.3
20260901133328 23 355 17.7 35.4 0.00 0.00 0.00 66 1021.3
20260901132824 23 321 16.1 33.8 0.00 0.00 0.00 67 1021.4
20260901132319 23 360 19.3 32.2 0.00 0.00 0.00 66 1021.4
20260901131822 23 355 12.9 25.7 0.00 0.00 0.00 66 1021.4
20260901131316 23 69 14.5 29.0 0.00 0.00 0.00 67 1021.5
20260901130816 23 293 14.5 29.0 0.00 0.00 0.00 66 1021.6
20260901130332 23 319 14.5 29.0 0.00 0.00 0.00 67 1021.6
20260901125832 23 45 11.3 35.4 0.00 0.00 0.00 67 1021.6
20260901125329 23 342 14.5 35.4 0.00 0.00 0.00 67 1021.8
20260901124831 23 360 12.9 33.8 0.00 0.00 0.00 67 1021.7
20260901124324 23 360 17.7 33.8 0.00 0.00 0.00 67 1021.7
20260901123819 23 360 8.0 30.6 0.00 0.00 0.00 67 1021.7
20260901123316 23 333 16.1 32.2 0.00 0.00 0.00 67 1021.7
20260901122819 23 360 17.7 32.2 0.00 0.00 0.00 67 1021.7
20260901122345 23 342 16.1 32.2 0.00 0.00 0.00 67 1021.7
20260901121834 23 9 19.3 32.2 0.00 0.00 0.00 66 1021.7
20260901121337 23 360 17.7 38.6 0.00 0.00 0.00 67 1021.6
20260901120828 23 51 17.7 38.6 0.00 0.00 0.00 67 1021.7
20260901120350 23 70 14.5 35.4 0.00 0.00 0.00 67 1021.6
20260901115832 22 346 17.7 33.8 0.00 0.00 0.00 67 1021.6
20260901115329 23 44 17.7 38.6 0.00 0.00 0.00 67 1021.6
20260901114824 23 44 16.1 38.6 0.00 0.00 0.00 67 1021.7
20260901114322 22 360 17.7 37.0 0.00 0.00 0.00 68 1021.6
20260901113838 22 328 17.7 38.6 0.00 0.00 0.00 68 1021.7
20260901113315 22 360 20.9 38.6 0.00 0.00 0.00 69 1021.8
20260901112828 22 360 22.5 38.6 0.00 0.00 0.00 69 1021.6
20260901112347 22 54 14.5 35.4 0.00 0.00 0.00 69 1021.7
20260901111821 22 360 17.7 38.6 0.00 0.00 0.00 69 1021.8
20260901111325 22 360 22.5 38.6 0.00 0.00 0.00 69 1021.8
20260901110819 22 360 20.9 35.4 0.00 0.00 0.00 69 1021.8
20260901110321 22 42 17.7 29.0 0.00 0.00 0.00 69 1022.1
20260901105844 22 324 14.5 32.2 0.00 0.00 0.00 71 1022.1
20260901105315 22 329 17.7 35.4 0.00 0.00 0.00 72 1022.3
20260901104836 21 83 17.7 38.6 0.00 0.00 0.00 72 1022.1
20260901104322 21 360 17.7 38.6 0.00 0.00 0.00 72 1022.2
20260901103818 21 327 16.1 37.0 0.00 0.00 0.00 72 1022.2
20260901103320 21 334 25.7 37.0 0.00 0.00 0.00 72 1021.9
20260901102816 22 316 19.3 37.0 0.00 0.00 0.00 72 1022.0
20260901102319 21 339 22.5 35.4 0.00 0.00 0.00 72 1022.0
20260901101835 21 344 11.3 30.6 0.00 0.00 0.00 73 1022.1
20260901101338 21 360 14.5 33.8 0.00 0.00 0.00 73 1022.2
20260901100838 21 295 20.9 33.8 0.00 0.00 0.00 73 1022.1
20260901100352 21 360 16.1 29.0 0.00 0.00 0.00 74 1022.3
20260901095832 21 42 16.1 30.6 0.00 0.00 0.00 74 1022.3
20260901095328 21 336 14.5 32.2 0.00 0.00 0.00 74 1022.2
20260901094832 21 360 17.7 27.4 0.00 0.00 0.00 74 1022.2
20260901094330 21 324 12.9 25.7 0.00 0.00 0.00 74 1022.2
20260901093823 21 63 12.9 29.0 0.00 0.00 0.00 74 1022.2
20260901093326 21 317 9.7 27.4 0.00 0.00 0.00 75 1022.2
20260901092821 21 42 14.5 29.0 0.00 0.00 0.00 75 1022.2
20260901092325 21 350 11.3 29.0 0.00 0.00 0.00 75 1022.2
20260901091821 21 35 11.3 25.7 0.00 0.00 0.00 76 1022.2
20260901091317 21 360 9.7 30.6 0.00 0.00 0.00 76 1022.2
20260901090821 21 360 17.7 30.6 0.00 0.00 0.00 75 1022.0
20260901090318 21 63 14.5 38.6 0.00 0.00 0.00 76 1022.1
20260901085839 20 49 19.3 38.6 0.00 0.00 0.00 76 1021.9
20260901085340 20 360 16.1 33.8 0.00 0.00 0.00 77 1022.1
20260901084817 20 360 14.5 25.7 0.00 0.00 0.00 77 1022.1
20260901084331 20 360 12.9 29.0 0.00 0.00 0.00 77 1022.0
20260901083835 20 293 9.7 27.4 0.00 0.00 0.00 77 1022.1
20260901083331 20 360 12.9 27.4 0.00 0.00 0.00 78 1022.0
20260901082837 20 355 11.3 25.7 0.00 0.00 0.00 78 1022.1
20260901082353 20 30 14.5 29.0 0.00 0.00 0.00 78 1022.2
20260901081836 20 360 14.5 30.6 0.00 0.00 0.00 78 1022.0
20260901081331 20 51 19.3 30.6 0.00 0.00 0.00 78 1022.1
20260901080827 20 39 9.7 33.8 0.00 0.00 0.00 78 1022.2
20260901080331 20 71 14.5 33.8 0.00 0.00 0.00 77 1022.0
20260901075856 20 51 9.7 29.0 0.00 0.00 0.00 77 1022.0
20260901075329 20 338 11.3 29.0 0.00 0.00 0.00 77 1022.0
20260901074827 20 360 11.3 19.3 0.00 0.00 0.00 78 1021.9
20260901074350 20 360 8.0 25.7 0.00 0.00 0.00 78 1021.9
20260901073825 20 311 12.9 25.7 0.00 0.00 0.00 78 1022.0
20260901073349 20 333 6.4 20.9 0.00 0.00 0.00 78 1022.1
20260901072824 20 360 8.0 17.7 0.00 0.00 0.00 78 1021.8
20260901072328 20 59 1.6 14.5 0.00 0.00 0.00 79 1021.8
20260901071824 20 289 8.0 16.1 0.00 0.00 0.00 79 1021.8
20260901071326 19 360 8.0 22.5 0.00 0.00 0.00 79 1021.8
20260901070823 19 344 12.9 22.5 0.00 0.00 0.00 79 1021.9
20260901070320 19 337 12.9 20.9 0.00 0.00 0.00 79 1021.8
20260901065823 19 80 4.8 16.1 0.00 0.00 0.00 80 1021.8
20260901065326 19 42 3.2 14.5 0.00 0.00 0.00 80 1021.7
20260901064822 19 355 6.4 14.5 0.00 0.00 0.00 80 1021.7
20260901064319 19 35 3.2 16.1 0.00 0.00 0.00 80 1021.6
20260901063823 19 331 9.7 19.3 0.00 0.00 0.00 80 1021.6
20260901063319 19 350 12.9 19.3 0.00 0.00 0.00 80 1021.5
20260901062815 19 44 1.6 12.9 0.00 0.00 0.00 79 1021.4
20260901062319 19 292 4.8 19.3 0.00 0.00 0.00 80 1021.6
20260901061351 19 264 4.8 17.7 0.00 0.00 0.00 80 1021.5
20260901060821 19 329 9.7 17.7 0.00 0.00 0.00 80 1021.5
20260901060316 19 310 4.8 14.5 0.00 0.00 0.00 80 1021.4
20260901055818 19 294 1.6 12.9 0.00 0.00 0.00 79 1021.3
20260901055334 19 318 3.2 22.5 0.00 0.00 0.00 79 1021.2
20260901054954 19 327 9.7 22.5 0.00 0.00 0.00 79 1021.2
20260901054856 19 327 9.7 22.5 0.00 0.00 0.00 79 1021.2
20260901054325 19 69 6.4 19.3 0.00 0.00 0.00 79 1021.2
20260901053837 19 26 4.8 16.1 0.00 0.00 0.00 79 1021.2
20260901053324 19 321 6.4 22.5 0.00 0.00 0.00 79 1021.2
20260901052823 19 338 12.9 22.5 0.00 0.00 0.00 79 1021.2
20260901052315 19 328 9.7 20.9 0.00 0.00 0.00 79 1021.2
20260901051817 19 334 4.8 17.7 0.00 0.00 0.00 79 1021.2
20260901051445 19 329 3.2 17.7 0.00 0.00 0.00 79 1021.2
20260901050826 18 329 6.4 16.1 0.00 0.00 0.00 79 1021.3
20260901050329 19 360 3.2 16.1 0.00 0.00 0.00 79 1021.4
20260901045821 19 79 3.2 19.3 0.00 0.00 0.00 79 1021.4
20260901045346 19 323 1.6 9.7 0.00 0.00 0.00 79 1021.4
20260901044822 19 321 4.8 12.9 0.00 0.00 0.00 79 1021.2
20260901044326 19 336 4.8 17.7 0.00 0.00 0.00 79 1021.4
20260901043822 19 330 8.0 17.7 0.00 0.00 0.00 79 1021.3
20260901043315 19 325 9.7 16.1 0.00 0.00 0.00 79 1021.3
20260901042816 19 55 3.2 12.9 0.00 0.00 0.00 79 1021.3
20260901042333 19 314 4.8 9.7 0.00 0.00 0.00 79 1021.2
20260901041836 18 316 4.8 12.9 0.00 0.00 0.00 79 1021.3
20260901041402 18 55 6.4 12.9 0.00 0.00 0.00 79 1021.3
20260901040823 18 318 3.2 9.7 0.00 0.00 0.00 79 1021.3
20260901040320 18 315 0.0 17.7 0.00 0.00 0.00 79 1021.5
20260901035821 19 326 1.6 17.7 0.00 0.00 0.00 79 1021.4
20260901035323 18 322 8.0 17.7 0.00 0.00 0.00 79 1021.5
20260901034837 18 334 6.4 12.9 0.00 0.00 0.00 79 1021.4
20260901034320 19 297 0.0 9.7 0.00 0.00 0.00 79 1021.4
20260901033836 18 294 4.8 9.7 0.00 0.00 0.00 79 1021.5
20260901033331 19 343 3.2 9.7 0.00 0.00 0.00 79 1021.6
20260901032825 18 330 4.8 16.1 0.00 0.00 0.00 79 1021.5
20260901032326 18 338 8.0 16.1 0.00 0.00 0.00 79 1021.6
20260901031818 18 80 1.6 3.2 0.00 0.00 0.00 79 1021.6
20260901031341 18 85 0.0 14.5 0.00 0.00 0.00 79 1021.6
20260901030821 18 28 1.6 14.5 0.00 0.00 0.00 79 1021.6
20260901030319 19 360 1.6 20.9 0.00 0.00 0.00 78 1021.6
20260901025821 18 54 6.4 20.9 0.00 0.00 0.00 79 1021.6
20260901025323 19 348 4.8 16.1 0.00 0.00 0.00 79 1021.7
20260901024836 18 355 3.2 16.1 0.00 0.00 0.00 79 1021.5
20260901024317 18 360 6.4 14.5 0.00 0.00 0.00 79 1021.6
20260901023816 18 360 4.8 12.9 0.00 0.00 0.00 79 1021.7
20260901023340 19 92 4.8 11.3 0.00 0.00 0.00 79 1021.7
20260901022831 19 42 3.2 20.9 0.00 0.00 0.00 79 1021.6
20260901022334 19 38 9.7 20.9 0.00 0.00 0.00 79 1021.6
20260901021848 19 77 3.2 12.9 0.00 0.00 0.00 79 1021.7
20260901021330 19 360 3.2 19.3 0.00 0.00 0.00 79 1021.8
20260901020846 19 331 8.0 19.3 0.00 0.00 0.00 78 1021.7
20260901020324 19 78 4.8 16.1 0.00 0.00 0.00 78 1021.7
20260901015814 19 321 6.4 27.4 0.00 0.00 0.00 78 1021.9
20260901015331 19 261 12.9 27.4 0.00 0.00 0.00 78 1021.8
20260901014827 19 63 6.4 19.3 0.00 0.00 0.00 78 1021.9
20260901014321 19 94 6.4 14.5 0.00 0.00 0.00 78 1022.1
20260901013825 19 298 6.4 16.1 0.00 0.00 0.00 78 1022.2
20260901013321 19 332 4.8 20.9 0.00 0.00 0.00 78 1022.3
20260901012845 19 323 8.0 24.1 0.00 0.00 0.00 78 1022.3
20260901012320 19 43 9.7 24.1 0.00 0.00 0.00 78 1022.4
20260901011833 19 348 6.4 16.1 0.00 0.00 0.00 78 1022.4
20260901011330 19 315 4.8 14.5 0.00 0.00 0.00 78 1022.5
20260901010826 19 340 6.4 16.1 0.00 0.00 0.00 78 1022.6
20260901010321 19 322 3.2 20.9 0.00 0.00 0.00 78 1022.6
20260901005824 19 301 12.9 20.9 0.00 0.00 0.00 78 1022.6
20260901005338 19 40 6.4 22.5 0.00 0.00 0.00 78 1022.5
20260901004822 19 51 9.7 22.5 0.00 0.00 0.00 78 1022.6
20260901004346 19 325 11.3 17.7 0.00 0.00 0.00 78 1022.5
20260901003822 19 326 9.7 17.7 0.00 0.00 0.00 78 1022.5
20260901003317 19 330 1.6 14.5 0.00 0.00 0.00 78 1022.4
20260901002820 19 323 6.4 14.5 0.00 0.00 0.00 78 1022.6
20260901002313 19 330 4.8 22.5 0.00 0.00 0.00 78 1022.7
20260901001901 19 70 9.7 22.5 0.00 0.00 0.00 78 1022.5
20260901001323 19 349 6.4 29.0 0.00 0.00 0.00 78 1022.4
20260901000823 19 51 9.7 29.0 0.00 0.00 0.00 78 1022.3
20260901000314 19 307 9.7 22.5 0.00 0.00 0.00 78 1022.5
20260831235833 19 37 6.4 22.5 0.00 0.00 0.00 78 1022.5
20260831235334 19 329 3.2 19.3 0.00 0.00 0.00 78 1022.7
20260831234823 19 345 6.4 19.3 0.00 0.00 0.00 78 1022.6
20260831234345 19 345 4.8 17.7 0.00 0.00 0.00 78 1022.7
20260831233848 19 323 6.4 17.7 0.00 0.00 0.00 78 1022.6
20260831233323 19 318 8.0 17.7 0.00 0.00 0.00 78 1022.5
20260831232821 19 43 8.0 16.1 0.00 0.00 0.00 78 1022.4
20260831232322 19 42 6.4 19.3 0.00 0.00 0.00 78 1022.3
20260831231815 19 319 6.4 19.3 0.00 0.00 0.00 78 1022.4
20260831231332 19 330 9.7 19.3 0.00 0.00 0.00 78 1022.4
20260831230835 19 355 3.2 22.5 0.00 0.00 0.00 78 1022.5
20260831230331 19 82 8.0 22.5 0.00 0.00 0.00 78 1022.4
20260831225851 19 320 4.8 19.3 0.00 0.00 0.00 78 1022.4
20260831225333 19 303 6.4 20.9 0.00 0.00 0.00 78 1022.4
20260831224830 19 321 6.4 24.1 0.00 0.00 0.00 78 1022.6
20260831224350 19 323 8.0 22.5 0.00 0.00 0.00 78 1022.6
20260831223826 19 305 3.2 16.1 0.00 0.00 0.00 78 1022.4
20260831223323 19 324 4.8 16.1 0.00 0.00 0.00 78 1022.5
20260831222827 19 35 4.8 17.7 0.00 0.00 0.00 78 1022.4
20260831222324 19 229 8.0 17.7 0.00 0.00 0.00 78 1022.3
20260831221826 19 49 1.6 16.1 0.00 0.00 0.00 78 1022.5
20260831221323 19 88 8.0 16.1 0.00 0.00 0.00 78 1022.5
20260831220826 19 292 0.0 25.7 0.00 0.00 0.00 78 1022.5
20260831220343 19 309 6.4 20.9 0.00 0.00 0.00 78 1022.5
20260831215822 19 319 4.8 16.1 0.00 0.00 0.00 78 1022.5
20260831215318 20 60 4.8 22.5 0.00 0.00 0.00 78 1022.6
20260831214820 20 114 9.7 22.5 0.00 0.00 0.00 78 1022.5
20260831214317 20 319 6.4 17.7 0.00 0.00 0.00 78 1022.5
20260831213820 20 321 6.4 24.1 0.00 0.00 0.00 78 1022.6
20260831213317 20 298 14.5 24.1 0.00 0.00 0.00 78 1022.6
20260831212813 20 275 4.8 24.1 0.00 0.00 0.00 78 1022.5
20260831212317 20 132 8.0 24.1 0.00 0.00 0.00 78 1022.6
20260831211813 20 53 6.4 24.1 0.00 0.00 0.00 78 1022.6
20260831211337 20 355 9.7 24.1 0.00 0.00 0.00 78 1022.6
20260831210840 20 323 9.7 30.6 0.00 0.00 0.00 78 1022.5
20260831210315 20 360 14.5 35.4 0.00 0.00 0.00 78 1022.3
20260831205817 20 348 9.7 35.4 0.00 0.00 0.00 78 1022.3
20260831205340 20 347 4.8 25.7 0.00 0.00 0.00 78 1022.3
20260831204833 20 312 11.3 25.7 0.00 0.00 0.00 78 1022.2
20260831204333 20 324 6.4 27.4 0.00 0.00 0.00 78 1022.4
20260831203838 20 305 12.9 27.4 0.00 0.00 0.00 78 1022.3
20260831203334 20 321 12.9 27.4 0.00 0.00 0.00 78 1022.5
20260831202837 20 355 11.3 27.4 0.00 0.00 0.00 78 1022.4
20260831202313 20 360 6.4 29.0 0.00 0.00 0.00 78 1022.4
20260831201831 20 44 9.7 32.2 0.00 0.00 0.00 78 1022.3
20260831201354 20 355 12.9 32.2 0.00 0.00 0.00 78 1022.5
20260831200857 20 360 6.4 22.5 0.00 0.00 0.00 78 1022.2
20260831200333 20 321 9.7 24.1 0.00 0.00 0.00 79 1022.3
20260831195834 20 328 4.8 24.1 0.00 0.00 0.00 78 1022.4
20260831195331 20 343 9.7 22.5 0.00 0.00 0.00 78 1022.2
20260831194850 20 325 11.3 24.1 0.00 0.00 0.00 78 1022.1
20260831194324 20 347 6.4 24.1 0.00 0.00 0.00 78 1022.2
20260831193848 20 348 14.5 24.1 0.00 0.00 0.00 78 1022.0
20260831193330 20 321 12.9 22.5 0.00 0.00 0.00 78 1022.0
20260831192825 20 326 11.3 24.1 0.00 0.00 0.00 78 1021.9
20260831192346 20 336 14.5 25.7 0.00 0.00 0.00 78 1021.9
20260831191821 20 317 12.9 25.7 0.00 0.00 0.00 77 1021.8
20260831191336 20 325 12.9 24.1 0.00 0.00 0.00 77 1021.8
20260831190821 20 350 8.0 25.7 0.00 0.00 0.00 76 1021.8
20260831190319 20 316 19.3 25.7 0.00 0.00 0.00 76 1021.7
20260831185820 20 341 12.9 30.6 0.00 0.00 0.00 76 1021.7
20260831185315 21 321 14.5 30.6 0.00 0.00 0.00 75 1021.7
20260831184840 21 339 12.9 32.2 0.00 0.00 0.00 75 1021.7
20260831184359 21 340 12.9 33.8 0.00 0.00 0.00 75 1021.7
20260831183834 21 30 16.1 33.8 0.00 0.00 0.00 74 1021.7
20260831183329 21 340 17.7 32.2 0.00 0.00 0.00 74 1021.6
20260831182830 21 327 11.3 35.4 0.00 0.00 0.00 73 1021.6
20260831182325 21 323 17.7 35.4 0.00 0.00 0.00 71 1021.6
20260831181828 21 360 17.7 33.8 0.00 0.00 0.00 70 1021.6
20260831181323 22 318 14.5 32.2 0.00 0.00 0.00 69 1021.6
20260831180819 22 329 12.9 32.2 0.00 0.00 0.00 69 1021.6
20260831180323 22 317 12.9 29.0 0.00 0.00 0.00 68 1021.5
20260831175817 22 62 19.3 29.0 0.00 0.00 0.00 66 1021.5
20260831175321 22 31 12.9 27.4 0.00 0.00 0.00 66 1021.5
20260831174818 22 360 16.1 32.2 0.00 0.00 0.00 66 1021.4
20260831174341 22 323 14.5 37.0 0.00 0.00 0.00 66 1021.4
20260831173816 23 360 20.9 37.0 0.00 0.00 0.00 64 1021.4
20260831173338 23 309 16.1 27.4 0.00 0.00 0.00 64 1021.5
20260831172814 23 360 11.3 29.0 0.00 0.00 0.00 64 1021.4
20260831172330 23 286 9.7 29.0 0.00 0.00 0.00 64 1021.4
20260831171813 23 355 12.9 32.2 0.00 0.00 0.00 64 1021.4
20260831171330 23 332 11.3 32.2 0.00 0.00 0.00 64 1021.3
20260831170832 23 355 19.3 29.0 0.00 0.00 0.00 64 1021.3
20260831170330 23 360 12.9 25.7 0.00 0.00 0.00 64 1021.4
20260831165832 23 300 11.3 27.4 0.00 0.00 0.00 64 1021.5
20260831165329 23 360 16.1 30.6 0.00 0.00 0.00 63 1021.2
20260831164833 23 351 19.3 30.6 0.00 0.00 0.00 62 1021.2
20260831164329 23 346 14.5 32.2 0.00 0.00 0.00 62 1021.4
20260831163850 23 346 20.9 35.4 0.00 0.00 0.00 61 1021.2
20260831163353 23 355 16.1 35.4 0.00 0.00 0.00 61 1021.2
20260831162827 23 360 14.5 32.2 0.00 0.00 0.00 60 1021.2
20260831162326 23 329 14.5 32.2 0.00 0.00 0.00 60 1021.4
20260831161822 23 35 17.7 35.4 0.00 0.00 0.00 59 1021.4
20260831161319 24 337 16.1 33.8 0.00 0.00 0.00 60 1021.4
20260831160823 23 323 16.1 37.0 0.00 0.00 0.00 61 1021.5
20260831160340 24 360 20.9 35.4 0.00 0.00 0.00 59 1021.4
20260831155820 24 360 17.7 33.8 0.00 0.00 0.00 59 1021.5
20260831155316 24 18 19.3 41.8 0.00 0.00 0.00 58 1021.5
20260831154818 24 39 19.3 41.8 0.00 0.00 0.00 59 1021.4
20260831154341 24 348 20.9 37.0 0.00 0.00 0.00 59 1021.4
20260831153815 24 336 12.9 37.0 0.00 0.00 0.00 60 1021.5
20260831153319 24 360 20.9 37.0 0.00 0.00 0.00 58 1021.4
20260831152815 24 334 17.7 43.5 0.00 0.00 0.00 59 1021.4
20260831152339 24 360 17.7 33.8 0.00 0.00 0.00 60 1021.4
20260831151813 24 59 19.3 33.8 0.00 0.00 0.00 59 1021.4
20260831151329 24 56 17.7 38.6 0.00 0.00 0.00 59 1021.5
20260831150831 24 355 17.7 38.6 0.00 0.00 0.00 59 1021.5
20260831150328 24 360 19.3 40.2 0.00 0.00 0.00 58 1021.6
20260831145831 24 360 20.9 40.2 0.00 0.00 0.00 58 1021.6
20260831145327 24 348 22.5 40.2 0.00 0.00 0.00 58 1021.6
20260831144830 24 360 24.1 40.2 0.00 0.00 0.00 59 1021.5
20260831144327 24 360 19.3 45.1 0.00 0.00 0.00 59 1021.5
20260831143825 24 22 20.9 46.7 0.00 0.00 0.00 60 1021.7
20260831143326 24 360 22.5 35.4 0.00 0.00 0.00 59 1021.8
20260831142824 24 69 19.3 41.8 0.00 0.00 0.00 60 1021.7
20260831142328 24 355 22.5 45.1 0.00 0.00 0.00 60 1021.8
20260831141822 24 9 24.1 45.1 0.00 0.00 0.00 61 1021.8